DateTimeUTC,F1_A11,F1_S11,BsB_S11,BsG_S11,BsR_S11,BbsB_S11,BbsG_S11,BbsR_S11,BaB_A11,BaG_A11,BaR_A11,Tu_S11,T_S11,Uu_S11,U_S11,P_S11,T1_A11
2021-01-30T01:00:00Z,00000200,21000000,,,,,,,0000.28,0000.30,0000.02,16.8,23.9,,00.0,0639.5,30.9
2021-01-30T01:01:00Z,00000200,21000000,,,,,,,-000.14,-000.77,-000.38,16.8,23.9,,00.0,0639.5,30.9
2021-01-30T01:02:00Z,00000200,21000000,,,,,,,0000.08,0000.47,-000.01,16.7,23.9,,00.0,0639.5,30.9
2021-01-30T01:03:00Z,00000200,61000000,,,,,,,0000.53,0000.08,0000.58,16.7,23.9,,00.0,0639.5,30.9
2021-01-30T01:04:00Z,00000200,41000000,0000.72,0000.04,-000.14,-000.29,0000.09,-000.25,-000.21,-000.04,0000.02,16.9,23.7,,00.0,0640.3,30.9
2021-01-30T01:05:00Z,00000200,01000000,0000.42,-000.24,-000.20,-000.09,-000.14,-000.27,-000.28,0000.42,-000.20,17.0,23.7,,00.0,0640.4,30.9
2021-01-30T01:06:00Z,00000200,01000000,0000.57,-000.01,-000.04,-000.04,0000.09,0000.09,0000.48,0000.10,0000.03,17.0,23.7,,00.0,0640.4,30.9
2021-01-30T01:07:00Z,00000200,01000000,0000.35,0000.06,-000.10,0000.18,0000.27,-000.21,-000.34,-000.06,0000.27,17.1,23.7,,00.0,0640.5,31.0
2021-01-30T01:08:00Z,00000200,01000000,0000.14,-000.14,0000.12,-000.02,-000.03,-000.29,0000.06,-000.38,-000.30,17.1,23.7,,00.0,0640.5,31.0
2021-01-30T01:09:00Z,00000200,01000000,0000.73,-000.12,0000.18,-000.31,0000.14,-000.08,0000.24,0000.56,0000.43,17.1,23.8,,00.0,0640.6,30.9
2021-01-30T01:10:00Z,00000200,01000000,-000.02,0000.02,-000.08,-000.25,0000.03,0000.26,-000.10,-000.44,-000.45,17.1,23.8,,00.0,0640.6,30.9
2021-01-30T01:11:00Z,00000200,01000000,0000.19,-000.12,0000.20,0000.21,-000.05,0000.02,-000.12,0000.27,-000.01,17.1,23.7,,00.0,0640.5,30.9
2021-01-30T01:12:00Z,00000200,01000000,0000.19,0000.21,0000.09,0000.21,0000.12,-000.14,0000.32,0000.40,0000.12,17.0,23.7,,00.0,0640.5,30.9
2021-01-30T01:13:00Z,00000200,01000000,0000.39,-000.31,0000.13,0000.47,0000.14,-000.16,-000.07,-000.15,-000.15,16.9,23.6,,00.0,0640.6,30.9
2021-01-30T01:14:00Z,00000200,01000000,0000.03,-000.38,0000.19,0000.08,0000.09,-000.18,-000.07,0000.05,0000.01,16.8,23.6,,00.0,0640.6,30.9
2021-01-30T01:15:00Z,00000200,01000000,-000.16,-000.25,0000.24,-000.21,0000.05,0000.05,-000.26,-000.15,0000.12,16.7,23.6,,00.0,0640.6,30.9
2021-01-30T01:16:00Z,00000200,01000000,-000.57,0000.00,-000.01,0000.33,0000.25,0000.07,0000.01,-000.75,-000.14,16.6,23.5,,00.0,0640.6,30.9
2021-01-30T01:17:00Z,00000200,01000000,0000.16,-000.25,0000.06,-000.05,0000.12,-000.17,-000.11,0000.13,0000.18,16.5,23.4,,00.0,0640.6,30.9
2021-01-30T01:18:00Z,00000200,01000000,0000.07,-000.24,-000.02,0000.25,0000.10,-000.15,0000.37,-000.13,-000.04,16.5,23.4,,00.0,0640.6,30.9
2021-01-30T01:19:00Z,00000200,01000000,-000.12,-000.37,-000.34,0000.32,0000.13,0000.02,0000.34,0000.63,0000.08,16.6,23.4,,00.0,0640.6,30.9
2021-01-30T01:20:00Z,00000200,01000000,-000.35,-000.10,0000.17,0000.49,-000.06,-000.08,0000.07,0000.22,-000.03,16.6,23.4,,00.0,0640.6,30.9
2021-01-30T01:21:00Z,00000200,01000000,0000.17,-000.02,0000.09,0000.17,0000.13,-000.01,-000.23,0000.18,0000.31,16.7,23.5,,00.0,0640.6,30.9
2021-01-30T01:22:00Z,00000200,01000000,0000.41,0000.19,-000.00,0000.12,0000.07,0000.06,0000.03,-000.30,-000.09,16.8,23.5,,00.0,0640.6,30.9
2021-01-30T01:23:00Z,00000200,01000000,0000.30,0000.08,0000.39,0000.20,-000.09,-000.19,0000.14,0000.13,0000.21,16.8,23.5,,00.0,0640.5,30.9
2021-01-30T01:24:00Z,00000200,01000000,-000.43,-000.01,0000.03,0000.22,0000.20,0000.01,0000.01,-000.08,-000.06,16.8,23.5,,00.0,0640.5,30.9
2021-01-30T01:25:00Z,00000200,01000000,0000.60,-000.11,-000.25,0000.29,-000.10,-000.09,-000.10,0000.09,0000.06,16.8,23.5,,00.0,0640.5,30.9
2021-01-30T01:26:00Z,00000200,01000000,-000.26,-000.09,-000.19,0000.12,0000.21,-000.00,0000.56,0000.18,-000.07,16.8,23.5,,00.0,0640.5,30.9
2021-01-30T01:27:00Z,00000200,01000000,0000.70,-000.15,0000.17,-000.09,0000.20,-000.25,-000.19,0000.18,-000.38,16.7,23.5,,00.0,0640.5,30.9
2021-01-30T01:28:00Z,00000200,01000000,0000.27,-000.21,-000.07,-000.08,0000.11,-000.21,-000.18,-000.51,0000.08,16.6,23.4,,00.0,0640.5,30.9
2021-01-30T01:29:00Z,00000200,01000000,0000.12,0000.21,-000.24,0000.21,0000.09,-000.15,-000.02,0000.14,0000.27,16.5,23.4,,00.0,0640.5,30.9
2021-01-30T01:30:00Z,00000200,01000000,0000.76,-000.17,0000.05,0000.11,0000.13,0000.02,0000.27,0000.05,-000.07,16.4,23.3,,00.0,0640.5,30.9
2021-01-30T01:31:00Z,00000200,01000000,0000.09,-000.35,-000.15,0000.11,0000.07,-000.18,-000.21,0000.05,0000.23,16.3,23.3,,00.0,0640.5,30.8
2021-01-30T01:32:00Z,00000200,01000000,0000.78,0000.04,0000.07,0000.18,0000.17,-000.11,0000.26,0000.08,0000.31,16.2,23.2,,00.0,0640.4,30.8
2021-01-30T01:33:00Z,00000200,01000000,0001.26,-000.02,0000.09,-000.38,0000.00,-000.20,0000.01,0000.18,-000.37,16.3,23.2,,00.0,0640.4,30.8
2021-01-30T01:34:00Z,00000200,01000000,-000.20,0000.00,0000.06,0000.09,0000.14,-000.14,0000.28,0000.11,0000.03,16.3,23.2,,00.0,0640.5,30.9
2021-01-30T01:35:00Z,00000200,01000000,0000.41,-000.20,0000.03,-000.21,0000.27,-000.04,0000.01,-000.12,-000.01,16.4,23.2,,00.0,0640.4,30.9
2021-01-30T01:36:00Z,00000200,01000000,0000.18,-000.14,0000.08,-000.12,0000.30,-000.12,-000.03,0000.17,0000.29,16.4,23.2,,00.0,0640.4,30.9
2021-01-30T01:37:00Z,00000200,01000000,0000.14,-000.09,-000.01,0000.29,0000.18,0000.14,0000.52,0000.27,-000.01,16.5,23.3,,00.0,0640.4,30.9
2021-01-30T01:38:00Z,00000200,01000000,0000.34,-000.12,0000.08,0000.08,0000.26,0000.12,-000.14,0000.20,-000.13,16.6,23.3,,00.0,0640.4,30.9
2021-01-30T01:39:00Z,00000200,01000000,0000.10,-000.02,0000.11,0000.10,-000.02,-000.13,0000.04,0000.34,0000.33,16.6,23.3,,00.0,0640.4,30.9
2021-01-30T01:40:00Z,00000200,01000000,0000.51,-000.03,0000.27,-000.05,0000.21,0000.04,-000.03,-000.38,0000.25,16.7,23.3,,00.0,0640.4,30.9
2021-01-30T01:41:00Z,00000200,01000000,0001.05,-000.08,-000.21,0000.05,0000.18,-000.16,0000.45,0000.16,0000.05,16.7,23.4,,00.0,0640.4,30.9
2021-01-30T01:42:00Z,00000200,01000000,0000.48,-000.05,-000.05,0000.04,0000.22,0000.03,-000.60,-000.29,-000.09,16.8,23.4,,00.0,0640.4,30.9
2021-01-30T01:43:00Z,00000200,01000000,-000.07,-000.18,0000.02,0000.15,0000.11,-000.04,0000.40,0000.21,0000.03,16.7,23.4,,00.0,0640.4,30.9
2021-01-30T01:44:00Z,00000200,01000000,0000.18,0000.07,-000.10,0000.12,0000.10,-000.09,-000.11,0000.28,-000.10,16.6,23.4,,00.0,0640.4,30.9
2021-01-30T01:45:00Z,00000200,01000000,0000.47,-000.03,-000.21,-000.25,0000.03,-000.22,0000.03,0000.07,-000.04,16.5,23.3,,00.0,0640.4,30.9
2021-01-30T01:46:00Z,00000200,01000000,0000.49,-000.19,-000.35,0000.38,-000.02,-000.22,-000.51,-000.86,-000.06,16.4,23.3,,00.0,0640.5,30.9
2021-01-30T01:47:00Z,00000200,01010000,-000.43,-000.23,0000.03,0000.02,0000.22,-000.04,0000.93,0000.59,0000.25,16.4,23.2,,00.0,0640.5,30.8
2021-01-30T01:48:00Z,00000200,01000000,0000.35,-000.25,-000.00,0000.57,-000.01,-000.19,0000.02,0000.37,0000.05,16.4,23.2,,00.0,0640.4,30.8
2021-01-30T01:49:00Z,00000200,01000000,0000.21,0000.10,-000.12,-000.52,0000.23,-000.01,0000.37,0000.05,0000.02,16.4,23.2,,00.0,0640.4,30.9
2021-01-30T01:50:00Z,00000200,01000000,0000.08,-000.06,-000.08,0000.24,0000.14,-000.03,-000.10,0000.37,0000.23,16.5,23.2,,00.0,0640.4,30.9
2021-01-30T01:51:00Z,00000200,01000000,0000.12,-000.01,0000.35,-000.25,-000.12,-000.20,0000.32,0000.09,0000.40,16.6,23.3,,00.0,0640.4,30.9
2021-01-30T01:52:00Z,00000200,01000000,0000.41,0000.17,0000.21,-000.48,0000.33,-000.11,0000.36,0000.35,0000.09,16.6,23.3,,00.0,0640.4,30.9
2021-01-30T01:53:00Z,00000200,01000000,0000.46,0000.01,0000.14,0000.26,0000.06,0000.09,-000.42,0000.17,0000.01,16.6,23.3,,00.0,0640.4,30.9
2021-01-30T01:54:00Z,00000200,01000000,-000.21,0000.44,-000.10,-000.08,0000.24,-000.17,0000.22,-000.16,-000.06,16.7,23.3,,00.0,0640.4,30.9
2021-01-30T01:55:00Z,00000200,01000000,0000.29,0000.10,0000.06,-000.45,0000.12,0000.21,0000.24,0000.00,0000.21,16.8,23.4,,00.0,0640.4,30.9
2021-01-30T01:56:00Z,00000200,01000000,-000.17,-000.10,-000.09,-000.23,0000.24,-000.07,-000.18,-000.17,-000.06,16.8,23.4,,00.0,0640.4,30.9
2021-01-30T01:57:00Z,00000200,41000000,,,,,,,-000.00,-000.16,-000.39,16.9,23.4,,00.0,0640.4,30.9
2021-01-30T01:58:00Z,00000200,61000000,,,,,,,-000.06,0000.31,0000.25,16.4,23.6,,00.0,0639.5,30.9
2021-01-30T01:59:00Z,00000200,21000000,,,,,,,-000.11,0000.15,-000.04,16.3,23.7,,00.0,0639.5,30.9
